EZY808X EGAA-LEPA

Flight info

Callsign EZY808X
Flight time N/A
Altitude 35000
Route LISBO DCT RINGA DCT BABGU DCT ETIGA DCT INKOB Q39 NOMSU UQ4 WAL L151 KIDLI UN859 SOPIL DCT BALAN DCT EVPOK DCT NARAK DCT GAI DCT LOMRA DCT ROCAN DCT IBRAP DCT LUKEV DCT LORES
Aircraft A320/M-SDE2E3FGHIJ1RWXYZ/LB1

Departure

Time 2026-04-30 13:13
Airport Belfast International Airport (EGAA)

Arrival

Time N/A
Airport Palma de Mallorca Airport (LEPA)
Time Latitude Longitude Altitude Speed Heading
2026-04-30 12:44 54.66082 -6.21649 273 ft 0 kts 335°
2026-04-30 13:05 54.66070 -6.21639 276 ft 4 kts 335°
2026-04-30 13:05 54.66045 -6.21619 274 ft 4 kts 335°
2026-04-30 13:05 54.66021 -6.21600 276 ft 4 kts 335°
2026-04-30 13:06 54.65975 -6.21563 272 ft 4 kts 323°
2026-04-30 13:06 54.65961 -6.21530 272 ft 4 kts 279°
2026-04-30 13:06 54.65961 -6.21485 272 ft 4 kts 255°
2026-04-30 13:06 54.65970 -6.21441 273 ft 4 kts 245°
2026-04-30 13:07 54.65981 -6.21401 272 ft 4 kts 245°
2026-04-30 13:07 54.65992 -6.21358 272 ft 4 kts 245°
2026-04-30 13:07 54.66002 -6.21322 272 ft 1 kts 245°
2026-04-30 13:09 54.66001 -6.21324 272 ft 2 kts 245°
2026-04-30 13:09 54.65974 -6.21424 272 ft 16 kts 245°
2026-04-30 13:10 54.65910 -6.21659 272 ft 26 kts 244°
2026-04-30 13:10 54.65831 -6.21955 272 ft 28 kts 245°
2026-04-30 13:10 54.65770 -6.22272 272 ft 28 kts 262°
2026-04-30 13:10 54.65747 -6.22610 272 ft 27 kts 266°
2026-04-30 13:11 54.65709 -6.22901 272 ft 25 kts 238°
2026-04-30 13:11 54.65603 -6.23151 273 ft 26 kts 234°
2026-04-30 13:11 54.65503 -6.23340 272 ft 18 kts 206°
2026-04-30 13:11 54.65401 -6.23408 272 ft 14 kts 194°
2026-04-30 13:12 54.65318 -6.23360 272 ft 12 kts 154°
2026-04-30 13:12 54.65282 -6.23309 272 ft 5 kts 95°
2026-04-30 13:12 54.65300 -6.23244 272 ft 14 kts 64°
2026-04-30 13:13 54.65803 -6.21379 273 ft 146 kts 65°
2026-04-30 13:13 54.66271 -6.19687 734 ft 158 kts 68°
2026-04-30 13:13 54.67180 -6.16122 1916 ft 173 kts 83°
2026-04-30 13:14 54.66910 -6.14079 2133 ft 188 kts 127°
2026-04-30 13:14 54.65777 -6.12703 2436 ft 216 kts 155°
2026-04-30 13:14 54.63406 -6.09265 3738 ft 232 kts 124°
2026-04-30 13:15 54.62529 -6.06934 4611 ft 233 kts 123°
2026-04-30 13:15 54.60665 -6.02092 6034 ft 252 kts 127°
2026-04-30 13:15 54.59634 -5.99618 6828 ft 258 kts 129°
2026-04-30 13:16 54.58544 -5.97115 7641 ft 264 kts 129°
2026-04-30 13:16 54.57419 -5.94598 8472 ft 266 kts 129°
2026-04-30 13:16 54.56247 -5.92054 9337 ft 272 kts 130°
2026-04-30 13:17 54.53850 -5.86900 10736 ft 287 kts 131°
2026-04-30 13:17 54.52546 -5.84125 10945 ft 310 kts 131°
2026-04-30 13:17 54.49638 -5.77952 11219 ft 355 kts 131°
2026-04-30 13:18 54.48051 -5.74575 11483 ft 369 kts 131°
2026-04-30 13:18 54.44793 -5.67629 12639 ft 375 kts 131°
2026-04-30 13:18 54.43155 -5.64139 13219 ft 377 kts 131°
2026-04-30 13:19 54.41502 -5.60623 13784 ft 379 kts 131°
2026-04-30 13:19 54.39841 -5.57085 14326 ft 382 kts 130°
2026-04-30 13:19 54.38223 -5.53420 14852 ft 386 kts 128°
2026-04-30 13:19 54.36669 -5.49665 15335 ft 388 kts 127°
2026-04-30 13:20 54.35143 -5.45824 15801 ft 391 kts 127°
2026-04-30 13:20 54.33618 -5.41937 16262 ft 394 kts 127°
2026-04-30 13:20 54.32075 -5.38029 16741 ft 397 kts 127°
2026-04-30 13:20 54.30512 -5.34121 17194 ft 399 kts 127°
2026-04-30 13:21 54.28925 -5.30210 17620 ft 402 kts 127°
2026-04-30 13:21 54.27305 -5.26290 18039 ft 404 kts 129°
2026-04-30 13:21 54.25593 -5.22475 18453 ft 406 kts 131°
2026-04-30 13:22 54.21968 -5.15019 19206 ft 410 kts 133°
2026-04-30 13:22 54.20114 -5.11310 19564 ft 412 kts 133°
2026-04-30 13:22 54.16392 -5.03782 20260 ft 417 kts 132°
2026-04-30 13:23 54.14536 -4.99965 20594 ft 419 kts 131°
2026-04-30 13:23 54.10823 -4.92245 21191 ft 424 kts 131°
2026-04-30 13:24 54.07054 -4.84465 21807 ft 427 kts 132°
2026-04-30 13:24 54.03246 -4.76620 22374 ft 432 kts 130°
2026-04-30 13:25 53.99579 -4.68464 22927 ft 436 kts 129°
2026-04-30 13:25 53.95958 -4.60145 23506 ft 437 kts 128°
2026-04-30 13:26 53.90437 -4.47724 24408 ft 440 kts 129°
2026-04-30 13:26 53.86723 -4.39520 25169 ft 437 kts 129°
2026-04-30 13:27 53.83198 -4.31153 25917 ft 436 kts 127°
2026-04-30 13:28 53.78129 -4.18441 27030 ft 432 kts 127°
2026-04-30 13:28 53.74733 -4.10106 27761 ft 430 kts 127°
2026-04-30 13:28 53.73024 -4.05970 28119 ft 428 kts 128°
2026-04-30 13:29 53.69613 -3.97765 28839 ft 426 kts 128°
2026-04-30 13:29 53.66226 -3.89620 29553 ft 423 kts 128°
2026-04-30 13:30 53.61169 -3.77506 30590 ft 420 kts 128°
2026-04-30 13:31 53.57815 -3.69491 31254 ft 418 kts 128°
2026-04-30 13:31 53.52783 -3.57517 32187 ft 415 kts 128°
2026-04-30 13:32 53.49452 -3.49630 32805 ft 413 kts 128°
2026-04-30 13:32 53.46373 -3.41561 33374 ft 416 kts 118°
2026-04-30 13:33 53.44103 -3.32633 33919 ft 416 kts 116°
2026-04-30 13:33 53.41813 -3.23680 34432 ft 415 kts 116°
2026-04-30 13:34 53.40628 -3.19271 34665 ft 414 kts 121°
2026-04-30 13:34 53.35779 -3.09560 35177 ft 410 kts 144°
2026-04-30 13:35 53.33427 -3.06817 35204 ft 415 kts 146°
2026-04-30 13:36 53.23778 -2.95888 35191 ft 420 kts 146°
2026-04-30 13:36 53.16529 -2.87664 35192 ft 420 kts 146°
2026-04-30 13:37 53.09256 -2.79472 35196 ft 421 kts 146°
2026-04-30 13:38 53.01982 -2.71290 35200 ft 421 kts 146°
2026-04-30 13:39 52.92280 -2.60424 35191 ft 421 kts 146°
2026-04-30 13:40 52.84984 -2.52315 35193 ft 421 kts 146°
2026-04-30 13:40 52.80105 -2.46936 35196 ft 422 kts 146°
2026-04-30 13:41 52.75230 -2.41560 35195 ft 421 kts 146°
2026-04-30 13:41 52.70356 -2.36183 35202 ft 421 kts 146°
2026-04-30 13:42 52.65483 -2.30820 35204 ft 421 kts 146°
2026-04-30 13:42 52.58155 -2.22782 35214 ft 422 kts 146°
2026-04-30 13:43 52.53273 -2.17435 35216 ft 421 kts 146°
2026-04-30 13:43 52.48381 -2.12111 35222 ft 423 kts 146°
2026-04-30 13:44 52.43481 -2.06815 35226 ft 422 kts 146°
2026-04-30 13:44 52.38584 -2.01507 35227 ft 422 kts 146°
2026-04-30 13:45 52.31244 -1.93560 35226 ft 421 kts 146°
2026-04-30 13:46 52.26352 -1.88299 35224 ft 421 kts 146°
2026-04-30 13:46 52.21458 -1.83055 35219 ft 420 kts 146°
2026-04-30 13:47 52.16578 -1.77839 35212 ft 419 kts 146°
2026-04-30 13:47 52.11696 -1.72629 35203 ft 419 kts 146°
2026-04-30 13:48 52.06838 -1.67437 35186 ft 417 kts 146°
2026-04-30 13:48 52.01977 -1.62264 35187 ft 418 kts 146°
2026-04-30 13:49 51.97095 -1.57102 35188 ft 419 kts 146°
2026-04-30 13:49 51.92194 -1.51940 35192 ft 420 kts 146°
2026-04-30 13:50 51.87290 -1.46787 35189 ft 420 kts 146°
2026-04-30 13:50 51.79939 -1.39076 35182 ft 420 kts 146°
2026-04-30 13:51 51.74705 -1.34881 35174 ft 423 kts 161°
2026-04-30 13:51 51.69090 -1.32042 35180 ft 423 kts 161°
2026-04-30 13:52 51.63468 -1.29198 35179 ft 423 kts 161°
2026-04-30 13:52 51.57852 -1.26355 35179 ft 424 kts 161°
2026-04-30 13:53 51.52218 -1.23516 35180 ft 424 kts 161°
2026-04-30 13:53 51.46714 -1.20181 35180 ft 423 kts 154°
2026-04-30 13:54 51.41361 -1.16226 35180 ft 425 kts 154°
2026-04-30 13:54 51.36004 -1.12277 35180 ft 424 kts 154°
2026-04-30 13:55 51.30638 -1.08357 35184 ft 424 kts 154°
2026-04-30 13:55 51.25282 -1.04449 35172 ft 422 kts 154°